This is the latest recevied weather packets stored in our database for station/object HB9EYZ-1. If no packets are shown the sender has not sent any weather packets the latest 1 day(s).
| Time | Temp. | Humidity | Pressure | Rain* | Wind** | Luminosity | Snow |
|---|---|---|---|---|---|---|---|
| 1778099988 | 10.56° C | 71% | 1007.4 hPa | 5.84 mm | - | - | - |
| 1778099671 | 10.56° C | 71% | 1007.4 hPa | 5.84 mm | - | - | - |
| 1778098404 | 10° C | 68% | 1007.1 hPa | 5.84 mm | - | - | - |
| 1778098087 | 10° C | 67% | 1007.2 hPa | 5.84 mm | - | - | - |
| 1778097768 | 10° C | 66% | 1006.9 hPa | 5.84 mm | - | - | - |
| 1778097451 | 10° C | 65% | 1007 hPa | 5.84 mm | - | - | - |
| 1778097132 | 10° C | 64% | 1006.6 hPa | 5.84 mm | - | - | - |
| 1778096815 | 10° C | 63% | 1006.6 hPa | 5.84 mm | - | - | - |
| 1778096496 | 10° C | 62% | 1006.7 hPa | 5.84 mm | - | - | - |
| 1778096179 | 10° C | 62% | 1006.5 hPa | 5.84 mm | - | - | - |
| 1778095545 | 10° C | 60% | 1006.4 hPa | 5.84 mm | - | - | - |
| 1778094912 | 10.56° C | 59% | 1006.4 hPa | 5.84 mm | - | - | - |
| 1778093027 | 11.11° C | 54% | 1006.3 hPa | 5.84 mm | - | - | - |
| 1778091761 | 11.11° C | 51% | 1005.9 hPa | 5.84 mm | - | - | - |
| 1778091128 | 11.11° C | 50% | 1005.8 hPa | 5.84 mm | - | - | - |
| 1778089861 | 11.67° C | 49% | 1005.7 hPa | 5.84 mm | - | - | - |
| 1778089228 | 11.67° C | 49% | 1005.6 hPa | 5.84 mm | - | - | - |
| 1778088911 | 11.67° C | 49% | 1005.6 hPa | 5.84 mm | - | - | - |
| 1778087991 | 11.67° C | 49% | 1005.5 hPa | 5.84 mm | - | - | - |
| 1778085453 | 11.67° C | 48% | 1005.1 hPa | 5.84 mm | - | - | - |
| 1778085134 | 11.67° C | 48% | 1005.1 hPa | 5.84 mm | - | - | - |
| 1778084501 | 11.67° C | 48% | 1005 hPa | 5.84 mm | - | - | - |
| 1778083865 | 11.67° C | 48% | 1005 hPa | 5.84 mm | - | - | - |
| 1778081329 | 11.11° C | 44% | 1005 hPa | 5.84 mm | - | - | - |
| 1778081012 | 11.11° C | 43% | 1005 hPa | 5.84 mm | - | - | - |
* Rain latest hour (hover to see other rain measurements)
** Current wind speed in m/s (hover to see current wind gust speed)